Dewpoint
19 19 19 20 20 21 22 22 23 23 23 24 24 24 25 27 28 30 31 32 33 34
20 19 18 18 20 20 20 19 22 21 21 21 21 22 23 25 25 27 29 29 31 31
20 20 19 19 19 19 19 20 20 20 21 22 22 22 21 20 21 23 23 23 27 28
19 19 19 19 19 20 20 20 20 20 20 20 20 20 21 21 20 20 21 21 23 24
17 18 18 19 19 21 20 21 20 20 20 19 18 19 19 18 19 20 18 19 21 21
17 18 18 19 20 21 21 21 21 20 19 18 18 17 16 16 15 16 17 19 21 21
19 19 19 20 21 21 22 21 21 20 19 18 17 16 15 14 14 16 17 18 18 19
20 20 20 20 21 20 20 17 15 12 13 12 12 12 14 15 17 18 17 17 17 17
19 19 19 17 15 12 11 10 10 10 10 11 9 15 18 17 15 16 17 18 17 17
17 15 14 11 10 9 8 8 8 7 7 6 6 13 16 16 11 11 11 11 12 15
13 10 9 8 7 6 6 5 5 5 5 5 4 12 13 14 9 9 8 8 9 9
10 7 7 4 5 4 4 4 3 5 4 3 3 10 12 12 9 9 9 7 7 8
9 2 2 4 2 3 2 3 2 3 2 2 0 8 11 11 9 8 9 9 6 11
5 2 1 0 2 0 -1 0 -1 -1 -0 -0 1 2 10 12 9 10 9 10 11 11
Lifted_Index
15 15 15 16 16 17 17 18 19 19 19 19 19 19 19 19 18 17 16 16 15 15
15 15 15 16 16 17 17 17 18 18 18 18 18 18 18 18 18 17 17 18 17 17
15 15 16 16 16 16 16 17 17 17 17 17 17 17 17 17 17 17 18 18 18 18
15 15 15 15 15 16 16 16 16 17 17 17 17 17 17 17 17 17 17 17 18 18
15 15 15 15 15 16 16 16 17 17 17 17 17 17 18 18 18 17 17 17 17 17
14 14 15 15 15 16 16 16 17 17 17 17 17 18 18 18 18 18 18 18 18 18
14 14 14 15 15 15 16 16 16 16 16 16 17 17 18 18 18 18 18 18 18 18
13 13 13 14 14 14 14 14 14 14 14 15 15 16 16 17 17 18 18 18 18 18
11 11 11 12 12 12 12 12 12 12 12 13 13 14 15 16 16 17 17 17 18 18
9 9 10 10 10 11 11 11 11 11 11 11 12 14 15 16 16 17 17 18 19 19
8 8 9 10 10 10 10 10 10 10 11 11 13 14 16 17 18 18 19 20 21 21
8 8 9 10 10 10 10 10 10 11 11 12 14 16 18 19 19 19 20 21 22 22
8 9 9 9 10 10 10 10 10 11 12 13 15 17 19 20 21 20 20 21 22 22
8 9 9 9 10 10 10 10 10 11 12 14 15 17 19 21 21 21 20 21 21 21